Weather Service Report


989 
FPUS83 KFGF 201831
OPUFGF
PRAIRIE TO PINES WEATHER ROUNDUP
NATIONAL WEATHER SERVICE EASTERN NORTH DAKOTA/GRAND FORKS ND
100 PM CDT SUN APR 20 2014

 **SATELLITE DATA USED TO AUGMENT SKY COVER AT AUTOMATED STATIONS**
 *****  WEATHER ACROSS EASTERN NORTH DAKOTA  *****
  
CITY           SKY/WX    TMP DP  RH WIND       PRES   REMARKS
GRAND FORKS    MOSUNNY   60  40  47 VRB6      29.98F                  
6HR MIN TEMP:  29; 6HR MAX TEMP:  60;                                

GRAND FORKS AF SUNNY     61  40  45 S8        29.98F                  
GRAND CITY NWS   N/A     63 N/A N/A SE7         N/A                   
BUXTON           N/A     66  41  39 S9          N/A                   
DEVILS LAKE    MOSUNNY   63  39  42 SE12      29.93F                  
6HR MIN TEMP:  28; 6HR MAX TEMP:  61;                                

FARGO          SUNNY     67  37  33 SE14      29.99F                  
6HR MIN TEMP:  31; 6HR MAX TEMP:  68;                                

WAHPETON ARPT  CLEAR     70  32  24 S10G17    29.99F                  
$$

 *****  WEATHER ACROSS CENTRAL AND WESTERN NORTH DAKOTA  *****
  
CITY           SKY/WX    TMP DP  RH WIND       PRES   REMARKS
JAMESTOWN      SUNNY     69  37  30 S15       29.94F                  
6HR MIN TEMP:  32; 6HR MAX TEMP:  69;                                

BISMARCK       PTSUNNY   72  33  24 S10       29.91F                  
6HR MIN TEMP:  33; 6HR MAX TEMP:  72;                                

MINOT          PTSUNNY   65  33  30 S12G18    29.84F                  
6HR MIN TEMP:  33; 6HR MAX TEMP:  65;                                

MINOT AFB      PTSUNNY   65  38  36 S14       29.83F                  
6HR MIN TEMP:  31; 6HR MAX TEMP:  65;                                

GARRISON         N/A     66  33  29 S13       29.86F                  
6HR MIN TEMP:  30; 6HR MAX TEMP:  67;                                

WILLISTON      PTSUNNY   63  29  27 W17G24    29.85R                  
6HR MIN TEMP:  29; 6HR MAX TEMP:  64;                                

DICKINSON      CLOUDY    66  34  30 W21       29.89R                  
6HR MIN TEMP:  36; 6HR MAX TEMP:  67;                                

HETTINGER      PTSUNNY   69  37  30 SW15      29.92S                  
6HR MIN TEMP:  27; 6HR MAX TEMP:  70;                                

$$

 *****  OTHER OBSERVATIONS NORTHEAST NORTH DAKOTA  *****
  
CITY           SKY/WX    TMP DP  RH WIND       PRES   REMARKS
WALHALLA         N/A     54  37  54 SE12      29.97F                  
LANGDON        FAIR      63  39  42 S13       29.94F                  
CAVALIER       FAIR      50  37  62 E7        29.99F                  
GRAFTON        FAIR      55  39  54 SE9       29.98F                  
CANDO          FAIR      59  39  47 S15G21    29.92F                  
FORT TOTTEN      N/A     62  38  41 S13       29.95                   
ROLLA          FAIR      57  41  54 S16G22    29.90F                  
RUGBY          FAIR      63  37  39 S13G21    29.87F                  
 ***** THE ABOVE OBSERVATIONS ARE NON NWS ARE NOT QUALITY
        CONTROLLED AND MAY MIS-REPORT RAIN FOR SNOW...
$$

 *****  OTHER OBSERVATIONS SOUTHEAST NORTH DAKOTA *****
  
CITY           SKY/WX    TMP DP  RH WIND       PRES   REMARKS
COOPERSTOWN    FAIR      63  39  42 S21       29.95F                  
VALLEY CITY    FAIR      68  37  32 S12       29.96F                  
OAKES          FAIR      70  36  28 S12       29.97F                  
GWINNER        CLEAR     73  34  23 S8        29.98F                  
BUFFALO        NOT AVBL                                               
WYNDMERE       NOT AVBL                                               
 ***** THE ABOVE OBSERVATIONS ARE NON NWS ARE NOT QUALITY
       CONTROLLED AND MAY MIS-REPORT RAIN FOR SNOW...
$$

  *****  WEATHER ACROSS NORTHERN MINNESOTA  *****     
  
CITY           SKY/WX    TMP DP  RH WIND       PRES   REMARKS
FLAG ISLAND    SUNNY     39  30  70 SE5       30.02S                  
WARROAD        SUNNY     52  37  58 SW6       30.02F                  
ROSEAU         SUNNY     52  37  58 W6        30.02F                  
HALLOCK        CLOUDY    52  39  62 S7        30.00F                  
THF RVR FALLS  SUNNY     55  36  47 SE8       30.00F                  
6HR MIN TEMP:  30; 6HR MAX TEMP:  55;                                

HALSTAD          N/A     67  32  27 S14         N/A                   
FOSSTON        SUNNY     64  34  32 CALM      30.00F                  
BAUDETTE       SUNNY     51  36  56 CALM      30.02F                  
6HR MIN TEMP:  29; 6HR MAX TEMP:  51;                                

WASKISH        SUNNY     55  34  44 W7        30.02S                  
CROOKSTON      SUNNY     61  39  44 S6        30.00F                  
$$
  *****  WEATHER ACROSS CENTRAL AND WEST MINNESOTA  *****     
  
CITY           SKY/WX    TMP DP  RH WIND       PRES   REMARKS
BEMIDJI        SUNNY     63  30  28 E3        30.00F                  
PARK RAPIDS    SUNNY     64  30  27 SE6       30.00F                  
6HR MIN TEMP:  29; 6HR MAX TEMP:  64;                                

WADENA         SUNNY     66  36  32 SW3       30.00F                  
DETROIT LAKES  SUNNY     64  34  32 SW9       30.02S                  
MOORHEAD       SUNNY     64  37  36 S9        30.00F                  
FERGUS FALLS   SUNNY     70  28  21 S5        29.96F                  
ELBOW LAKE     FAIR      68  36  29 SE9       30.00F                  
6HR MIN TEMP:  41; 6HR MAX TEMP:  68;                                

MORRIS MN      SUNNY     72  36  26 SE8G16    29.99F                  
STAPLES        SUNNY     66  28  24 CALM      30.01F                  
WHEATON        SUNNY     72  41  33 SE7       30.01F                  
$$
  *****  WEATHER ELSEWHERE ACROSS MINNESOTA  *****     
  
CITY           SKY/WX    TMP DP  RH WIND       PRES   REMARKS
DULUTH         SUNNY     60  33  36 VRB3      30.03F                  
6HR MIN TEMP:  37; 6HR MAX TEMP:  60;                                

INTRNTL FALLS  SUNNY     53  33  46 VRB6      30.02F                  
6HR MIN TEMP:  30; 6HR MAX TEMP:  54;                                

ELY            SUNNY     57  28  33 W9        30.02S                  
CLOQUET        SUNNY     63  27  25 CALM      30.02F                  
BRAINERD       SUNNY     71  30  21 CALM      30.02F                  
6HR MIN TEMP:  34; 6HR MAX TEMP:  71;                                

HIBBING        SUNNY     61  33  35 VRB5      30.02F                  
6HR MIN TEMP:  27; 6HR MAX TEMP:  62;                                

ALEXANDRIA     SUNNY     66  36  32 S8        30.03S                  
6HR MIN TEMP:  40; 6HR MAX TEMP:  67;                                

SAINT CLOUD    SUNNY     67  37  33 SE6       30.02F                  
6HR MIN TEMP:  34; 6HR MAX TEMP:  68;                                

MINNEAPOLIS    MOSUNNY   69  44  40 E6        30.01F                  
6HR MIN TEMP:  45; 6HR MAX TEMP:  69;                                

$$

  *****  WEATHER ACROSS SOUTH DAKOTA  *****
  
CITY           SKY/WX    TMP DP  RH WIND       PRES   REMARKS
SIOUX FALLS    MOSUNNY   74  41  30 E9G21     29.96F                  
6HR MIN TEMP:  44; 6HR MAX TEMP:  75;                                

BROOKINGS      NOT AVBL                                               
WATERTOWN      SUNNY     71  29  21 SE9       29.98F                  
6HR MIN TEMP:  35; 6HR MAX TEMP:  71;                                

HURON          SUNNY     74  26  16 SE8       29.96F                  
6HR MIN TEMP:  35; 6HR MAX TEMP:  75;                                

SISSETON       NOT AVBL                                               
ABERDEEN       MOSUNNY   71  29  21 S10G18    29.96F                  
6HR MIN TEMP:  32; 6HR MAX TEMP:  72;                                

MITCHELL       SUNNY     76  31  19 E10       29.96F                  
PIERRE         SUNNY     73  31  21 SE21G29   29.91F                  
6HR MIN TEMP:  36; 6HR MAX TEMP:  74;                                

MOBRIDGE       MOSUNNY   68  26  20 S15       29.91F                  
RAPID CITY     SUNNY     71  42  35 NE6       29.92S                  
6HR MIN TEMP:  38; 6HR MAX TEMP:  71;                                

$$

  *****  SOME WEATHER IN NEARBY STATES *****
  
CITY           SKY/WX    TMP DP  RH WIND       PRES   REMARKS
GLASGOW MT     MOSUNNY   62  27  26 W29G40    29.93R                  
6HR MIN TEMP:  37; 6HR MAX TEMP:  62;                                

GREAT FALLS MT SUNNY     55  17  22 W26G35    30.07R                  
6HR MIN TEMP:  39; 6HR MAX TEMP:  56;                                

CHEYENNE WY    MOSUNNY   65  26  23 NW15G25   30.09S                  
6HR MIN TEMP:  38; 6HR MAX TEMP:  66;                                

SCOTTSBLUFF NE SUNNY     74  36  25 W13       29.99F                  
6HR MIN TEMP:  38; 6HR MAX TEMP:  74;                                

OMAHA NE       PTSUNNY   79  52  38 SW14G20   29.97F                  
6HR MIN TEMP:  59; 6HR MAX TEMP:  79;                                

DES MOINES IA  PTSUNNY   81  52  36 SW16G23   30.01F                  
6HR MIN TEMP:  57; 6HR MAX TEMP:  82;                                

DAVENPORT IA   SUNNY     80  44  27 S16G24    30.09F                  
6HR MIN TEMP:  55; 6HR MAX TEMP:  80;                                

CHICAGO IL     PTSUNNY   74  38  27 SW17      30.15F                  
6HR MIN TEMP:  45; 6HR MAX TEMP:  74;                                

EAU CLAIRE WI  PTSUNNY   64  50  60 CALM      30.03F                  
6HR MIN TEMP:  51; 6HR MAX TEMP:  64;                                

LA CROSSE WI   LGT RAIN  54  50  86 S10       30.07F FOG              
6HR MIN TEMP:  53; 6HR MAX TEMP:  60; 6HR PCP:  0.23;                

$$

  *****  SOME NATIONAL WEATHER *****
  
CITY           SKY/WX    TMP DP  RH WIND       PRES   REMARKS
LA GUARDIA NY  PTSUNNY   55  23  28 SE14G21   30.46F                  

Return to Home page


Western Regional Climate Center, wrcc@dri.edu